Bar Harbor, ME

11:27 AM EST on December 12, 2019 (GMT -0500)
Hancock County-Bar Harbor

Weather History for KBHB - October, 2019

Change the Weather History Date:

Tuesday, October 1, 2019

  Actual Average Record
Temperature  
Mean Temperature 53 °F -  
Max Temperature 61 °F 63 °F 78 °F (1954)
Min Temperature 46 °F 45 °F 33 °F (1965)
Degree Days  
Heating Degree Days 12    
Growing Degree Days 3 (Base 50)    
Moisture  
Dew Point 51 °F    
Average Humidity 92    
Maximum Humidity 100    
Minimum Humidity 83    
Precipitation  
Precipitation 0.02 in - - ()
Sea Level Pressure  
Sea Level Pressure 30.00 in    
Wind  
Wind Speed 6 mph (South)    
Max Wind Speed 17 mph    
Max Gust Speed 22 mph    
Visibility 9 miles    
Events Rain    
Averages and records for this station are not official NWS values.
T = Trace of Precipitation, MM = Missing Value Source: NWS Daily Summary

Daily Weather History Graph

Daily Weather History Graph

Search for Another Location

Airport or City:

Astronomy

Oct. 01, 2019 Rise Set
Actual Time 6:30 AM EDT 6:14 PM EDT
Civil Twilight 6:01 AM EDT 6:43 PM EDT
Nautical Twilight 5:28 AM EDT 7:17 PM EDT
Astronomical Twilight 4:53 AM EDT 7:51 PM EDT
Moon 9:49 AM EDT (10/1) 8:17 PM EDT (10/1)
Length of Visible Light 12h 41m
Length of Day
11h 43m
Waxing Crescent, 12% of the Moon is Illuminated
Oct 1
Waxing Crescent
Oct 5
First Quarter
Oct 13
Full
Oct 21
Last Quarter
Oct 27
New

Hourly Weather History & Observations

Time (EDT) Temp. Dew Point Humidity Pressure Visibility Wind Dir Wind Speed Gust Speed Precip Events Conditions
12:56 AM 46.9 °F 43.0 °F 86% 30.24 in 10.0 mi Calm Calm - N/A   Scattered Clouds
1:56 AM 46.9 °F 44.1 °F 90% 30.22 in 10.0 mi Calm Calm - N/A   Mostly Cloudy
2:56 AM 46.9 °F 44.1 °F 90% 30.21 in 10.0 mi Calm Calm - N/A   Overcast
3:56 AM 46.9 °F 45.0 °F 93% 30.18 in 10.0 mi Calm Calm - N/A   Overcast
4:56 AM 46.9 °F 45.0 °F 93% 30.18 in 10.0 mi Calm Calm - N/A   Overcast
5:56 AM 46.9 °F 46.0 °F 97% 30.15 in 10.0 mi South 3.5 mph - 0.00 in Rain Light Rain
6:56 AM 48.9 °F 44.1 °F 83% 30.15 in 10.0 mi South 3.5 mph - 0.00 in Rain Light Rain
7:56 AM 48.9 °F 44.1 °F 83% 30.14 in 10.0 mi South 4.6 mph - 0.00 in   Overcast
8:18 AM 48.2 °F 44.6 °F 87% 30.13 in 10.0 mi South 5.8 mph - N/A   Overcast
8:56 AM 50.0 °F 45.0 °F 83% 30.14 in 10.0 mi Calm Calm - N/A   Overcast
9:56 AM 50.0 °F 45.0 °F 83% 30.13 in 10.0 mi ESE 4.6 mph - N/A   Overcast
10:56 AM 50.0 °F 46.9 °F 89% 30.11 in 10.0 mi ESE 5.8 mph - 0.00 in Rain Light Rain
11:56 AM 52.0 °F 50.0 °F 93% 30.08 in 7.0 mi SE 6.9 mph - 0.00 in Rain Light Rain
12:56 PM 53.1 °F 52.0 °F 96% 30.05 in 5.0 mi SSE 10.4 mph - 0.00 in   Overcast
1:51 PM 53.6 °F 53.6 °F 100% 30.02 in 5.0 mi South 8.1 mph - 0.00 in Rain Light Rain
1:56 PM 54.0 °F 53.1 °F 97% 30.01 in 4.0 mi South 8.1 mph - 0.00 in Rain Light Rain
2:35 PM 55.4 °F 53.6 °F 94% 29.99 in 10.0 mi South 13.8 mph - 0.01 in   Overcast
2:56 PM 55.0 °F 54.0 °F 96% 29.99 in 4.0 mi SSW 13.8 mph - 0.01 in   Overcast
3:56 PM 55.9 °F 54.0 °F 93% 29.94 in 10.0 mi South 13.8 mph - 0.00 in   Overcast
4:20 PM 55.4 °F 53.6 °F 94% 29.92 in 10.0 mi South 15.0 mph - N/A   Overcast
4:56 PM 57.0 °F 54.0 °F 89% 29.92 in 10.0 mi South 16.1 mph - N/A   Overcast
5:33 PM 57.2 °F 53.6 °F 88% 29.88 in 10.0 mi South 17.3 mph - N/A   Overcast
5:56 PM 57.0 °F 53.1 °F 87% 29.89 in 10.0 mi SSW 13.8 mph - N/A   Overcast
6:47 PM 57.2 °F 53.6 °F 88% 29.87 in 10.0 mi SSW 13.8 mph 20.7 mph N/A   Overcast
6:56 PM 57.0 °F 53.1 °F 87% 29.87 in 10.0 mi SSW 12.7 mph - N/A   Overcast
7:56 PM 57.9 °F 55.0 °F 90% 29.85 in 10.0 mi SSW 13.8 mph 21.9 mph N/A   Overcast
8:56 PM 57.9 °F 57.0 °F 97% 29.79 in 10.0 mi SSW 16.1 mph - 0.00 in Rain Light Rain
9:11 PM 57.2 °F 57.2 °F 100% 29.78 in 10.0 mi SSW 13.8 mph 21.9 mph 0.00 in Rain Light Rain
9:56 PM 59.0 °F 57.9 °F 96% 29.75 in 10.0 mi SSW 15.0 mph 19.6 mph 0.00 in Rain Light Rain
10:56 PM 60.1 °F 60.1 °F 100% 29.73 in 10.0 mi SW 4.6 mph - 0.01 in   Overcast
11:56 PM 61.0 °F 60.1 °F 97% 29.65 in 10.0 mi SSW 16.1 mph 20.7 mph 0.00 in Rain Light Rain